timestamp,wind_dir_avg,wind_spd_avg,wind_spd_max_dir,wind_spd_gust,battery_voltage,lat,long
2023-12-19 00:04:00+00:00,187.0,15.07,186.0,18.71,12.09,47.59359,-54.27349
2023-12-19 00:14:00+00:00,187.0,15.58,183.0,19.04,12.09,47.59359,-54.27349
2023-12-19 00:24:00+00:00,182.0,17.43,178.0,19.19,12.09,47.59359,-54.27349
2023-12-19 00:34:00+00:00,179.0,16.02,178.0,18.1,12.09,47.59359,-54.27349
2023-12-19 00:44:00+00:00,180.0,17.0,176.0,20.98,12.09,47.59359,-54.27349
2023-12-19 00:54:00+00:00,178.0,15.61,173.0,18.21,12.09,47.59359,-54.27349
2023-12-19 01:04:00+00:00,181.0,14.51,166.0,19.8,12.09,47.59359,-54.27349
2023-12-19 01:14:00+00:00,178.0,15.95,181.0,19.47,12.09,47.59359,-54.27349
2023-12-19 01:24:00+00:00,180.0,17.11,184.0,21.86,12.09,47.59359,-54.27349
2023-12-19 01:34:00+00:00,179.0,17.37,177.0,19.99,12.09,47.59359,-54.27349
2023-12-19 01:44:00+00:00,183.0,16.8,180.0,19.33,12.09,47.59359,-54.27349
2023-12-19 01:54:00+00:00,181.0,17.85,181.0,21.47,12.09,47.59359,-54.27349
2023-12-19 02:04:00+00:00,183.0,16.28,184.0,19.19,12.09,47.59359,-54.27349
2023-12-19 02:14:00+00:00,184.0,17.51,183.0,20.66,12.09,47.59359,-54.27349
2023-12-19 02:24:00+00:00,184.0,18.04,184.0,20.61,12.09,47.59359,-54.27349
2023-12-19 02:34:00+00:00,182.0,17.46,183.0,20.79,12.09,47.59359,-54.27349
2023-12-19 02:44:00+00:00,181.0,18.58,180.0,21.76,12.09,47.59359,-54.27349
2023-12-19 02:54:00+00:00,182.0,16.53,185.0,19.47,12.09,47.59359,-54.27349
2023-12-19 03:04:00+00:00,180.0,16.74,187.0,20.31,12.09,47.59359,-54.27349
2023-12-19 03:14:00+00:00,179.0,17.11,179.0,20.28,12.09,47.59359,-54.27349
2023-12-19 03:24:00+00:00,177.0,17.74,175.0,21.11,12.09,47.59359,-54.27349
2023-12-19 03:34:00+00:00,179.0,18.34,164.0,22.03,12.09,47.59359,-54.27349
2023-12-19 03:44:00+00:00,171.0,17.04,166.0,20.14,12.09,47.59359,-54.27349
2023-12-19 03:54:00+00:00,178.0,15.72,176.0,19.85,12.09,47.59359,-54.27349
2023-12-19 04:04:00+00:00,180.0,16.12,192.0,21.0,12.09,47.59359,-54.27349
2023-12-19 04:14:00+00:00,179.0,16.9,181.0,19.44,12.09,47.59359,-54.27349
2023-12-19 04:24:00+00:00,180.0,15.98,178.0,18.86,12.09,47.59359,-54.27349
2023-12-19 04:34:00+00:00,181.0,18.36,180.0,21.12,12.09,47.59359,-54.27349
2023-12-19 04:44:00+00:00,180.0,16.63,178.0,20.96,12.09,47.59359,-54.27349
2023-12-19 04:54:00+00:00,181.0,16.71,182.0,20.88,12.09,47.59359,-54.27349
2023-12-19 05:04:00+00:00,183.0,18.7,180.0,22.01,12.09,47.59359,-54.27349
2023-12-19 05:14:00+00:00,184.0,17.34,190.0,22.07,12.09,47.59359,-54.27349
2023-12-19 05:24:00+00:00,184.0,18.17,186.0,22.06,12.09,47.59359,-54.27349
2023-12-19 05:34:00+00:00,181.0,19.92,190.0,24.38,12.09,47.59359,-54.27349
2023-12-19 05:44:00+00:00,183.0,18.92,185.0,22.04,12.09,47.59359,-54.27349
2023-12-19 05:54:00+00:00,184.0,19.08,184.0,22.39,12.09,47.59359,-54.27349
2023-12-19 06:04:00+00:00,182.0,18.31,181.0,21.78,12.09,47.59359,-54.27349
2023-12-19 06:14:00+00:00,187.0,20.09,191.0,23.8,12.09,47.59359,-54.27349
2023-12-19 06:24:00+00:00,187.0,18.33,186.0,23.51,12.09,47.59359,-54.27349
2023-12-19 06:34:00+00:00,190.0,16.61,190.0,21.46,12.09,47.59359,-54.27349
2023-12-19 06:44:00+00:00,188.0,14.76,194.0,16.89,12.09,47.59359,-54.27349
2023-12-19 06:54:00+00:00,192.0,16.06,188.0,19.43,12.09,47.59359,-54.27349
2023-12-19 07:04:00+00:00,187.0,17.53,182.0,20.87,12.09,47.59359,-54.27349
2023-12-19 07:14:00+00:00,190.0,19.59,183.0,23.4,12.09,47.59359,-54.27349
2023-12-19 07:24:00+00:00,192.0,20.71,189.0,24.29,12.09,47.59359,-54.27349
2023-12-19 07:34:00+00:00,191.0,16.24,193.0,18.94,12.09,47.59359,-54.27349
2023-12-19 07:44:00+00:00,188.0,19.02,190.0,22.71,12.09,47.59359,-54.27349
2023-12-19 07:54:00+00:00,190.0,19.9,186.0,23.69,12.09,47.59359,-54.27349
2023-12-19 08:04:00+00:00,187.0,20.64,186.0,25.8,12.09,47.59359,-54.27349
2023-12-19 08:14:00+00:00,189.0,19.77,193.0,23.59,12.09,47.59359,-54.27349
2023-12-19 08:24:00+00:00,188.0,18.07,192.0,21.72,12.09,47.59359,-54.27349
2023-12-19 08:34:00+00:00,188.0,21.43,190.0,25.53,12.09,47.59359,-54.27349
2023-12-19 08:44:00+00:00,188.0,20.62,189.0,24.93,12.09,47.59359,-54.27349
2023-12-19 08:54:00+00:00,187.0,19.13,187.0,22.96,12.09,47.59359,-54.27349
2023-12-19 09:04:00+00:00,184.0,19.2,183.0,23.54,12.09,47.59359,-54.27349
2023-12-19 09:14:00+00:00,191.0,19.31,192.0,21.63,12.09,47.59359,-54.27349
2023-12-19 09:24:00+00:00,190.0,20.32,191.0,24.51,12.09,47.59359,-54.27349
2023-12-19 09:34:00+00:00,187.0,18.4,185.0,21.26,12.09,47.59359,-54.27349
2023-12-19 09:44:00+00:00,187.0,20.5,187.0,24.98,12.09,47.59359,-54.27349
2023-12-19 09:54:00+00:00,188.0,20.79,185.0,25.16,12.09,47.59359,-54.27349
2023-12-19 10:04:00+00:00,187.0,20.84,185.0,25.04,12.09,47.59359,-54.27349
2023-12-19 10:14:00+00:00,185.0,18.62,184.0,21.19,12.09,47.59359,-54.27349
2023-12-19 10:24:00+00:00,184.0,18.41,184.0,21.8,12.09,47.59359,-54.27349
2023-12-19 10:34:00+00:00,187.0,20.04,189.0,23.39,12.09,47.59359,-54.27349
2023-12-19 10:44:00+00:00,185.0,20.2,179.0,23.88,12.09,47.59359,-54.27349
2023-12-19 10:54:00+00:00,187.0,17.42,191.0,21.16,12.09,47.59359,-54.27349
2023-12-19 11:04:00+00:00,188.0,19.61,189.0,22.25,12.09,47.59359,-54.27349
2023-12-19 11:14:00+00:00,189.0,23.09,191.0,26.79,12.09,47.59359,-54.27349
2023-12-19 11:24:00+00:00,184.0,19.49,185.0,21.66,12.09,47.59359,-54.27349
2023-12-19 11:34:00+00:00,183.0,19.82,188.0,23.24,12.09,47.59359,-54.27349
2023-12-19 11:44:00+00:00,182.0,20.68,189.0,24.8,12.09,47.59359,-54.27349
2023-12-19 11:54:00+00:00,184.0,21.17,187.0,25.38,12.09,47.59359,-54.27349
2023-12-19 12:04:00+00:00,186.0,19.57,184.0,23.78,12.09,47.59359,-54.27349
2023-12-19 12:14:00+00:00,188.0,20.38,192.0,24.14,12.09,47.59359,-54.27349
2023-12-19 12:24:00+00:00,189.0,22.05,194.0,26.12,12.09,47.59359,-54.27349
2023-12-19 12:34:00+00:00,187.0,19.85,194.0,22.88,12.09,47.59359,-54.27349
2023-12-19 12:44:00+00:00,189.0,18.26,190.0,21.34,12.09,47.59359,-54.27349
2023-12-19 12:54:00+00:00,185.0,18.04,187.0,20.64,12.09,47.59359,-54.27349
2023-12-19 13:04:00+00:00,184.0,17.78,185.0,21.1,12.09,47.59359,-54.27349
2023-12-19 13:14:00+00:00,179.0,16.7,181.0,19.0,12.09,47.59359,-54.27349
2023-12-19 13:24:00+00:00,182.0,16.64,186.0,19.52,12.09,47.59359,-54.27349
2023-12-19 13:34:00+00:00,187.0,19.52,189.0,25.7,12.09,47.59359,-54.27349
2023-12-19 13:44:00+00:00,185.0,20.38,178.0,23.87,12.09,47.59359,-54.27349
2023-12-19 13:54:00+00:00,190.0,19.3,192.0,24.6,12.09,47.59359,-54.27349
2023-12-19 14:04:00+00:00,193.0,21.44,193.0,23.95,12.09,47.59359,-54.27349
2023-12-19 14:14:00+00:00,191.0,21.32,192.0,27.12,12.33,47.59359,-54.27349
2023-12-19 14:24:00+00:00,191.0,20.1,190.0,23.71,12.33,47.59359,-54.27349
2023-12-19 14:34:00+00:00,190.0,21.14,188.0,24.97,12.33,47.59359,-54.27349
2023-12-19 14:44:00+00:00,191.0,23.04,198.0,26.74,12.33,47.59359,-54.27349
2023-12-19 14:54:00+00:00,189.0,19.54,181.0,23.79,12.33,47.59359,-54.27349
2023-12-19 15:04:00+00:00,190.0,23.33,196.0,27.36,12.33,47.59359,-54.27349
2023-12-19 15:14:00+00:00,193.0,20.14,199.0,24.26,12.57,47.59359,-54.27349
2023-12-19 15:24:00+00:00,189.0,19.76,185.0,24.8,12.57,47.59359,-54.27349
2023-12-19 15:34:00+00:00,191.0,19.72,200.0,25.7,12.57,47.59359,-54.27349
2023-12-19 15:44:00+00:00,191.0,19.49,186.0,23.36,12.57,47.59359,-54.27349
2023-12-19 15:54:00+00:00,191.0,20.5,190.0,25.76,12.57,47.59359,-54.27349
2023-12-19 16:04:00+00:00,191.0,21.07,186.0,25.04,12.57,47.59359,-54.27349
2023-12-19 16:14:00+00:00,193.0,20.01,195.0,24.29,12.65,47.59359,-54.27349
2023-12-19 16:24:00+00:00,191.0,22.9,191.0,26.92,12.65,47.59359,-54.27349
2023-12-19 16:34:00+00:00,190.0,20.81,186.0,24.26,12.65,47.59359,-54.27349
2023-12-19 16:44:00+00:00,194.0,21.67,196.0,24.99,12.65,47.59359,-54.27349
2023-12-19 16:54:00+00:00,194.0,20.47,202.0,27.46,12.65,47.59359,-54.27349
2023-12-19 17:04:00+00:00,192.0,21.77,190.0,24.57,12.65,47.59359,-54.27349
2023-12-19 17:14:00+00:00,193.0,20.02,196.0,23.78,12.73,47.59359,-54.27349
2023-12-19 17:24:00+00:00,191.0,22.61,192.0,26.74,12.73,47.59359,-54.27349
2023-12-19 17:34:00+00:00,191.0,20.58,189.0,23.68,12.73,47.59359,-54.27349
2023-12-19 17:44:00+00:00,193.0,19.39,192.0,21.93,12.73,47.59359,-54.27349
2023-12-19 17:54:00+00:00,192.0,20.76,193.0,25.27,12.73,47.59359,-54.27349
2023-12-19 18:04:00+00:00,195.0,20.96,199.0,25.84,12.73,47.59359,-54.27349
2023-12-19 18:14:00+00:00,194.0,20.71,190.0,23.5,12.73,47.59359,-54.27349
2023-12-19 18:24:00+00:00,193.0,20.21,189.0,23.9,12.73,47.59359,-54.27349
2023-12-19 18:34:00+00:00,190.0,21.26,176.0,32.47,12.73,47.59359,-54.27349
2023-12-19 18:44:00+00:00,192.0,20.76,194.0,24.86,12.73,47.59359,-54.27349
2023-12-19 18:54:00+00:00,193.0,20.36,192.0,25.26,12.73,47.59359,-54.27349
2023-12-19 19:04:00+00:00,191.0,19.67,188.0,24.09,12.73,47.59359,-54.27349
2023-12-19 19:14:00+00:00,193.0,20.35,190.0,23.44,12.49,47.59359,-54.27349
2023-12-19 19:24:00+00:00,196.0,17.04,200.0,19.87,12.49,47.59359,-54.27349
2023-12-19 19:34:00+00:00,193.0,21.02,198.0,25.22,12.49,47.59359,-54.27349
2023-12-19 19:44:00+00:00,194.0,19.3,193.0,21.71,12.49,47.59359,-54.27349
2023-12-19 19:54:00+00:00,191.0,20.77,190.0,22.96,12.49,47.59359,-54.27349
2023-12-19 20:04:00+00:00,191.0,19.97,189.0,23.81,12.49,47.59359,-54.27349
2023-12-19 20:14:00+00:00,193.0,20.2,191.0,22.71,12.25,47.59359,-54.27349
2023-12-19 20:24:00+00:00,192.0,20.13,208.0,24.29,12.25,47.59359,-54.27349
2023-12-19 20:34:00+00:00,190.0,19.97,194.0,23.89,12.25,47.59359,-54.27349
2023-12-19 20:44:00+00:00,189.0,21.7,192.0,25.27,12.25,47.59359,-54.27349
2023-12-19 20:54:00+00:00,189.0,21.33,191.0,25.55,12.25,47.59359,-54.27349
2023-12-19 21:04:00+00:00,190.0,18.41,183.0,22.52,12.25,47.59359,-54.27349
2023-12-19 21:14:00+00:00,189.0,19.83,182.0,23.79,12.17,47.59359,-54.27349
2023-12-19 21:24:00+00:00,191.0,20.06,187.0,23.11,12.17,47.59359,-54.27349
2023-12-19 21:34:00+00:00,193.0,17.94,192.0,21.6,12.17,47.59359,-54.27349
2023-12-19 21:44:00+00:00,193.0,21.1,197.0,23.65,12.17,47.59359,-54.27349
2023-12-19 21:54:00+00:00,191.0,19.47,186.0,24.46,12.17,47.59359,-54.27349
2023-12-19 22:04:00+00:00,192.0,17.64,193.0,21.0,12.17,47.59359,-54.27349
2023-12-19 22:14:00+00:00,194.0,17.85,193.0,21.02,12.09,47.59359,-54.27349
2023-12-19 22:24:00+00:00,195.0,19.84,198.0,22.27,12.09,47.59359,-54.27349
2023-12-19 22:34:00+00:00,193.0,17.1,191.0,20.18,12.09,47.59359,-54.27349
2023-12-19 22:44:00+00:00,194.0,18.93,201.0,21.45,12.09,47.59359,-54.27349
2023-12-19 22:54:00+00:00,193.0,18.88,194.0,22.6,12.09,47.59359,-54.27349
2023-12-19 23:04:00+00:00,191.0,19.09,191.0,23.66,12.09,47.59359,-54.27349
2023-12-19 23:14:00+00:00,194.0,16.89,199.0,20.22,12.09,47.59359,-54.27349
2023-12-19 23:24:00+00:00,195.0,20.33,193.0,23.81,12.09,47.59359,-54.27349
2023-12-19 23:34:00+00:00,192.0,19.09,193.0,22.68,12.09,47.59359,-54.27349
2023-12-19 23:44:00+00:00,192.0,19.38,194.0,22.33,12.09,47.59359,-54.27349
2023-12-19 23:54:00+00:00,194.0,19.78,195.0,23.34,12.09,47.59359,-54.27349
